owner,sensor,date,latitude,longitude,vertical_datum,direction_of_sea_water_velocity,sea_water_speed,upward_sea_water_velocity,qcFlag 
TABS,ioos:station:wmo:42045:1,2012-02-01T00:00:00Z,26.2168,-96.4998,2.0,341.4033005,3.35519001,-99999.0,'11133222,11111222,99999999' 
TABS,ioos:station:wmo:42045:1,2012-02-01T00:30:00Z,26.2168,-96.4998,2.0,348.0919382,1.502331521,-99999.0,'11133222,11111222,99999999' 
TABS,ioos:station:wmo:42045:1,2012-02-01T01:00:00Z,26.2168,-96.4998,2.0,33.90640816,1.469965986,-99999.0,'11133222,11111222,99999999' 
TABS,ioos:station:wmo:42045:1,2012-02-01T01:30:00Z,26.2168,-96.4998,2.0,348.8353564,1.549322433,-99999.0,'11133222,11111222,99999999' 
TABS,ioos:station:wmo:42045:1,2012-02-01T02:00:00Z,26.2168,-96.4998,2.0,90.87467473,2.620305326,-99999.0,'11133222,11111222,99999999' 
TABS,ioos:station:wmo:42045:1,2012-02-01T02:30:00Z,26.2168,-96.4998,2.0,328.7997688,4.150301194,-99999.0,'11133222,11111222,99999999' 
TABS,ioos:station:wmo:42045:1,2012-02-01T03:00:00Z,26.2168,-96.4998,2.0,73.26951137,3.508518206,-99999.0,'11133222,11111222,99999999' 
TABS,ioos:station:wmo:42045:1,2012-02-01T03:30:00Z,26.2168,-96.4998,2.0,62.12811265,2.352955588,-99999.0,'11133222,11111222,99999999' 
TABS,ioos:station:wmo:42045:1,2012-02-01T04:00:00Z,26.2168,-96.4998,2.0,310.3087551,2.334202219,-99999.0,'11133222,11111222,99999999' 
TABS,ioos:station:wmo:42045:1,2012-02-01T04:30:00Z,26.2168,-96.4998,2.0,327.5792215,1.753282636,-99999.0,'11133222,11111222,99999999' 
TABS,ioos:station:wmo:42045:1,2012-02-01T05:00:00Z,26.2168,-96.4998,2.0,66.83587553,2.186252501,-99999.0,'11133222,11111222,99999999' 
TABS,ioos:station:wmo:42045:1,2012-02-01T05:30:00Z,26.2168,-96.4998,2.0,336.2143818,2.305862095,-99999.0,'11133222,11111222,99999999' 
TABS,ioos:station:wmo:42045:1,2012-02-01T06:00:00Z,26.2168,-96.4998,2.0,283.2409099,0.523927476,-99999.0,'11133222,11111222,99999999' 
TABS,ioos:station:wmo:42045:1,2012-02-01T06:30:00Z,26.2168,-96.4998,2.0,121.6832538,3.960214641,-99999.0,'11133222,11111222,99999999' 
TABS,ioos:station:wmo:42045:1,2012-02-01T07:00:00Z,26.2168,-96.4998,2.0,117.3449558,3.613820693,-99999.0,'11133222,11111222,99999999' 
TABS,ioos:station:wmo:42045:1,2012-02-01T07:30:00Z,26.2168,-96.4998,2.0,169.1713482,3.034023731,-99999.0,'11133222,11111222,99999999' 
TABS,ioos:station:wmo:42045:1,2012-02-01T08:00:00Z,26.2168,-96.4998,2.0,103.5521576,3.157926535,-99999.0,'11133222,11111222,99999999' 
TABS,ioos:station:wmo:42045:1,2012-02-01T08:30:00Z,26.2168,-96.4998,2.0,23.29027324,1.643958637,-99999.0,'11133222,11111222,99999999' 
TABS,ioos:station:wmo:42045:1,2012-02-01T09:00:00Z,26.2168,-96.4998,2.0,134.0450557,0.84864598,-99999.0,'11133222,11111222,99999999' 
TABS,ioos:station:wmo:42045:1,2012-02-01T09:30:00Z,26.2168,-96.4998,2.0,151.2761197,2.018365675,-99999.0,'11133222,11111222,99999999' 
TABS,ioos:station:wmo:42045:1,2012-02-01T10:00:00Z,26.2168,-96.4998,2.0,232.0944169,1.660271062,-99999.0,'11133222,11111222,99999999' 
TABS,ioos:station:wmo:42045:1,2012-02-01T10:30:00Z,26.2168,-96.4998,2.0,230.6633773,1.719592975,-99999.0,'11133222,11111222,99999999' 
TABS,ioos:station:wmo:42045:1,2012-02-01T11:00:00Z,26.2168,-96.4998,2.0,217.1430865,4.190047732,-99999.0,'11133222,11111222,99999999' 
TABS,ioos:station:wmo:42045:1,2012-02-01T11:30:00Z,26.2168,-96.4998,2.0,244.5104381,4.763664556,-99999.0,'11133222,11111222,99999999' 
TABS,ioos:station:wmo:42045:1,2012-02-01T12:00:00Z,26.2168,-96.4998,2.0,272.3699234,2.902481697,-99999.0,'11133222,11111222,99999999' 
TABS,ioos:station:wmo:42045:1,2012-02-01T12:30:00Z,26.2168,-96.4998,2.0,264.3410484,5.476686955,-99999.0,'11133222,11111222,99999999' 
TABS,ioos:station:wmo:42045:1,2012-02-01T13:00:00Z,26.2168,-96.4998,2.0,277.5618317,3.419736832,-99999.0,'11133222,11111222,99999999' 
TABS,ioos:station:wmo:42045:1,2012-02-01T13:30:00Z,26.2168,-96.4998,2.0,309.0890645,5.42406674,-99999.0,'11133222,11111222,99999999' 
TABS,ioos:station:wmo:42045:1,2012-02-01T14:00:00Z,26.2168,-96.4998,2.0,286.246016,7.864000254,-99999.0,'11133222,11111222,99999999' 
TABS,ioos:station:wmo:42045:1,2012-02-01T14:30:00Z,26.2168,-96.4998,2.0,310.4606144,6.610975722,-99999.0,'11133222,11111222,99999999' 
TABS,ioos:station:wmo:42045:1,2012-02-01T15:00:00Z,26.2168,-96.4998,2.0,304.6889876,5.570035907,-99999.0,'11133222,11111222,99999999' 
TABS,ioos:station:wmo:42045:1,2012-02-01T15:30:00Z,26.2168,-96.4998,2.0,317.8208565,5.316812955,-99999.0,'11133222,11111222,99999999' 
TABS,ioos:station:wmo:42045:1,2012-02-01T16:00:00Z,26.2168,-96.4998,2.0,319.7605127,9.798943821,-99999.0,'11133222,11111222,99999999' 
TABS,ioos:station:wmo:42045:1,2012-02-01T16:30:00Z,26.2168,-96.4998,2.0,328.7979063,7.412233132,-99999.0,'11133222,11111222,99999999' 
TABS,ioos:station:wmo:42045:1,2012-02-01T17:00:00Z,26.2168,-96.4998,2.0,348.0695091,5.61121199,-99999.0,'11133222,11111222,99999999' 
TABS,ioos:station:wmo:42045:1,2012-02-01T17:30:00Z,26.2168,-96.4998,2.0,346.0310907,6.213766973,-99999.0,'11133222,11111222,99999999' 
TABS,ioos:station:wmo:42045:1,2012-02-01T18:00:00Z,26.2168,-96.4998,2.0,1.554088569,8.112983422,-99999.0,'11133222,11111222,99999999' 
TABS,ioos:station:wmo:42045:1,2012-02-01T18:30:00Z,26.2168,-96.4998,2.0,341.4790811,8.405343538,-99999.0,'11133222,11111222,99999999' 
TABS,ioos:station:wmo:42045:1,2012-02-01T19:00:00Z,26.2168,-96.4998,2.0,345.4781712,8.295016576,-99999.0,'11133222,11111222,99999999' 
TABS,ioos:station:wmo:42045:1,2012-02-01T19:30:00Z,26.2168,-96.4998,2.0,339.7502051,8.985377009,-99999.0,'11133222,11111222,99999999' 
TABS,ioos:station:wmo:42045:1,2012-02-01T20:00:00Z,26.2168,-96.4998,2.0,337.7075078,12.12635147,-99999.0,'11111222,11111222,99999999' 
TABS,ioos:station:wmo:42045:1,2012-02-01T20:30:00Z,26.2168,-96.4998,2.0,350.0960504,15.98827696,-99999.0,'11111222,11111222,99999999' 
TABS,ioos:station:wmo:42045:1,2012-02-01T21:00:00Z,26.2168,-96.4998,2.0,346.2619345,12.1269452,-99999.0,'11111222,11111222,99999999' 
TABS,ioos:station:wmo:42045:1,2012-02-01T21:30:00Z,26.2168,-96.4998,2.0,348.2751259,15.15625284,-99999.0,'11111222,11111222,99999999' 
TABS,ioos:station:wmo:42045:1,2012-02-01T22:00:00Z,26.2168,-96.4998,2.0,346.3938068,10.66944235,-99999.0,'11111222,11111222,99999999' 
TABS,ioos:station:wmo:42045:1,2012-02-01T22:30:00Z,26.2168,-96.4998,2.0,354.1962492,14.04198348,-99999.0,'11111222,11111222,99999999' 
TABS,ioos:station:wmo:42045:1,2012-02-01T23:00:00Z,26.2168,-96.4998,2.0,357.911206,14.53966299,-99999.0,'11111222,11111222,99999999' 
TABS,ioos:station:wmo:42045:1,2012-02-01T23:30:00Z,26.2168,-96.4998,2.0,357.2680009,13.84573942,-99999.0,'11111222,11111222,99999999' 
TABS,ioos:station:wmo:42045:1,2012-02-02T00:00:00Z,26.2168,-96.4998,2.0,352.7094252,10.71664593,-99999.0,'11111222,11111222,99999999' 
TABS,ioos:station:wmo:42045:1,2012-02-02T00:30:00Z,26.2168,-96.4998,2.0,354.5087252,13.27090803,-99999.0,'11111222,11111222,99999999' 
TABS,ioos:station:wmo:42045:1,2012-02-02T01:00:00Z,26.2168,-96.4998,2.0,4.647521704,14.31707023,-99999.0,'11111222,11111222,99999999' 
TABS,ioos:station:wmo:42045:1,2012-02-02T01:30:00Z,26.2168,-96.4998,2.0,8.559411222,10.95197699,-99999.0,'11111222,11111222,99999999' 
TABS,ioos:station:wmo:42045:1,2012-02-02T02:00:00Z,26.2168,-96.4998,2.0,14.16344057,14.222324,-99999.0,'11111222,11111222,99999999' 
TABS,ioos:station:wmo:42045:1,2012-02-02T02:30:00Z,26.2168,-96.4998,2.0,25.0272616,10.16435438,-99999.0,'11111222,11111222,99999999' 
TABS,ioos:station:wmo:42045:1,2012-02-02T03:00:00Z,26.2168,-96.4998,2.0,14.22264681,8.954462575,-99999.0,'11133222,11111222,99999999' 
TABS,ioos:station:wmo:42045:1,2012-02-02T03:30:00Z,26.2168,-96.4998,2.0,33.78192108,10.395095,-99999.0,'11111222,11111222,99999999' 
TABS,ioos:station:wmo:42045:1,2012-02-02T04:00:00Z,26.2168,-96.4998,2.0,41.69571106,9.20061411,-99999.0,'11133222,11111222,99999999' 
TABS,ioos:station:wmo:42045:1,2012-02-02T04:30:00Z,26.2168,-96.4998,2.0,42.71270751,10.09846028,-99999.0,'11111222,11111222,99999999' 
TABS,ioos:station:wmo:42045:1,2012-02-02T05:00:00Z,26.2168,-96.4998,2.0,45.65435007,8.669694343,-99999.0,'11133222,11111222,99999999' 
TABS,ioos:station:wmo:42045:1,2012-02-02T05:30:00Z,26.2168,-96.4998,2.0,61.11348578,3.974518839,-99999.0,'11133222,11111222,99999999' 
TABS,ioos:station:wmo:42045:1,2012-02-02T06:00:00Z,26.2168,-96.4998,2.0,40.914498,3.969886648,-99999.0,'11133222,11111222,99999999' 
TABS,ioos:station:wmo:42045:1,2012-02-02T06:30:00Z,26.2168,-96.4998,2.0,42.45862463,2.710885464,-99999.0,'11133222,11111222,99999999' 
TABS,ioos:station:wmo:42045:1,2012-02-02T07:00:00Z,26.2168,-96.4998,2.0,329.6305221,3.639395554,-99999.0,'11133222,11111222,99999999' 
TABS,ioos:station:wmo:42045:1,2012-02-02T07:30:00Z,26.2168,-96.4998,2.0,15.60912183,3.976656887,-99999.0,'11133222,11111222,99999999' 
TABS,ioos:station:wmo:42045:1,2012-02-02T08:00:00Z,26.2168,-96.4998,2.0,42.67858007,2.094755356,-99999.0,'11133222,11111222,99999999' 
TABS,ioos:station:wmo:42045:1,2012-02-02T08:30:00Z,26.2168,-96.4998,2.0,319.185222,2.616199534,-99999.0,'11133222,11111222,99999999' 
TABS,ioos:station:wmo:42045:1,2012-02-02T09:00:00Z,26.2168,-96.4998,2.0,329.7099279,3.648026864,-99999.0,'11133222,11111222,99999999' 
TABS,ioos:station:wmo:42045:1,2012-02-02T09:30:00Z,26.2168,-96.4998,2.0,250.1771609,1.828332574,-99999.0,'11133222,11111222,99999999' 
TABS,ioos:station:wmo:42045:1,2012-02-02T10:00:00Z,26.2168,-96.4998,2.0,323.2904423,3.580013966,-99999.0,'11133222,11111222,99999999' 
TABS,ioos:station:wmo:42045:1,2012-02-02T10:30:00Z,26.2168,-96.4998,2.0,224.757932,1.675857989,-99999.0,'11133222,11111222,99999999' 
TABS,ioos:station:wmo:42045:1,2012-02-02T11:00:00Z,26.2168,-96.4998,2.0,103.706929,0.844037914,-99999.0,'11133222,11111222,99999999' 
TABS,ioos:station:wmo:42045:1,2012-02-02T11:30:00Z,26.2168,-96.4998,2.0,296.4710186,5.429180417,-99999.0,'11133222,11111222,99999999' 
TABS,ioos:station:wmo:42045:1,2012-02-02T12:00:00Z,26.2168,-96.4998,2.0,312.4458382,6.504775169,-99999.0,'11133222,11111222,99999999' 
TABS,ioos:station:wmo:42045:1,2012-02-02T12:30:00Z,26.2168,-96.4998,2.0,320.6436208,7.190771864,-99999.0,'11133222,11111222,99999999' 
TABS,ioos:station:wmo:42045:1,2012-02-02T13:00:00Z,26.2168,-96.4998,2.0,322.1656077,9.977414495,-99999.0,'11133222,11111222,99999999' 
TABS,ioos:station:wmo:42045:1,2012-02-02T13:30:00Z,26.2168,-96.4998,2.0,321.3404926,7.81181157,-99999.0,'11133222,11111222,99999999' 
TABS,ioos:station:wmo:42045:1,2012-02-02T14:00:00Z,26.2168,-96.4998,2.0,337.5235234,6.774636522,-99999.0,'11133222,11111222,99999999' 
TABS,ioos:station:wmo:42045:1,2012-02-02T14:30:00Z,26.2168,-96.4998,2.0,332.8657502,10.34903377,-99999.0,'11111222,11111222,99999999' 
TABS,ioos:station:wmo:42045:1,2012-02-02T15:00:00Z,26.2168,-96.4998,2.0,332.7535007,9.020936758,-99999.0,'11133222,11111222,99999999' 
TABS,ioos:station:wmo:42045:1,2012-02-02T15:30:00Z,26.2168,-96.4998,2.0,342.7870646,10.67827701,-99999.0,'11111222,11111222,99999999' 
TABS,ioos:station:wmo:42045:1,2012-02-02T16:00:00Z,26.2168,-96.4998,2.0,326.5320818,14.32523996,-99999.0,'11111222,11111222,99999999' 
TABS,ioos:station:wmo:42045:1,2012-02-02T16:30:00Z,26.2168,-96.4998,2.0,340.9911658,13.57001474,-99999.0,'11111222,11111222,99999999' 
TABS,ioos:station:wmo:42045:1,2012-02-02T17:00:00Z,26.2168,-96.4998,2.0,358.1223374,13.42721118,-99999.0,'11111222,11111222,99999999' 
TABS,ioos:station:wmo:42045:1,2012-02-02T17:30:00Z,26.2168,-96.4998,2.0,347.8170672,13.12561618,-99999.0,'11111222,11111222,99999999' 
TABS,ioos:station:wmo:42045:1,2012-02-02T18:00:00Z,26.2168,-96.4998,2.0,352.1840896,13.16228324,-99999.0,'11111222,11111222,99999999' 
TABS,ioos:station:wmo:42045:1,2012-02-02T18:30:00Z,26.2168,-96.4998,2.0,351.7762994,14.68097068,-99999.0,'11111222,11111222,99999999' 
TABS,ioos:station:wmo:42045:1,2012-02-02T19:00:00Z,26.2168,-96.4998,2.0,354.4522736,12.61911249,-99999.0,'11111222,11111222,99999999' 
TABS,ioos:station:wmo:42045:1,2012-02-02T19:30:00Z,26.2168,-96.4998,2.0,2.037536391,12.65800142,-99999.0,'11111222,11111222,99999999' 
TABS,ioos:station:wmo:42045:1,2012-02-02T20:00:00Z,26.2168,-96.4998,2.0,5.810685687,10.27277957,-99999.0,'11111222,11111222,99999999' 
TABS,ioos:station:wmo:42045:1,2012-02-02T20:30:00Z,26.2168,-96.4998,2.0,4.780536761,11.3996535,-99999.0,'11111222,11111222,99999999' 
TABS,ioos:station:wmo:42045:1,2012-02-02T21:00:00Z,26.2168,-96.4998,2.0,352.4244213,8.040180346,-99999.0,'11133222,11111222,99999999' 
TABS,ioos:station:wmo:42045:1,2012-02-02T21:30:00Z,26.2168,-96.4998,2.0,344.3880315,6.614022982,-99999.0,'11133222,11111222,99999999' 
TABS,ioos:station:wmo:42045:1,2012-02-02T22:00:00Z,26.2168,-96.4998,2.0,358.3890627,13.51534313,-99999.0,'11111222,11111222,99999999' 
TABS,ioos:station:wmo:42045:1,2012-02-02T22:30:00Z,26.2168,-96.4998,2.0,358.9685148,9.441530596,-99999.0,'11133222,11111222,99999999' 
TABS,ioos:station:wmo:42045:1,2012-02-02T23:00:00Z,26.2168,-96.4998,2.0,5.929539074,10.16437898,-99999.0,'11111222,11111222,99999999' 
TABS,ioos:station:wmo:42045:1,2012-02-02T23:30:00Z,26.2168,-96.4998,2.0,352.7926523,8.608019517,-99999.0,'11133222,11111222,99999999' 
TABS,ioos:station:wmo:42045:1,2012-02-03T00:00:00Z,26.2168,-96.4998,2.0,344.8406997,12.61912834,-99999.0,'11111222,11111222,99999999' 
TABS,ioos:station:wmo:42045:1,2012-02-03T00:30:00Z,26.2168,-96.4998,2.0,346.3819984,9.641047661,-99999.0,'11133222,11111222,99999999' 
TABS,ioos:station:wmo:42045:1,2012-02-03T01:00:00Z,26.2168,-96.4998,2.0,10.33534264,10.14459462,-99999.0,'11111222,11111222,99999999' 
TABS,ioos:station:wmo:42045:1,2012-02-03T01:30:00Z,26.2168,-96.4998,2.0,20.50514199,11.81881974,-99999.0,'11111222,11111222,99999999' 
TABS,ioos:station:wmo:42045:1,2012-02-03T02:00:00Z,26.2168,-96.4998,2.0,6.673894979,15.74669807,-99999.0,'11111222,11111222,99999999' 
TABS,ioos:station:wmo:42045:1,2012-02-03T02:30:00Z,26.2168,-96.4998,2.0,13.58110106,10.98721075,-99999.0,'11111222,11111222,99999999' 
TABS,ioos:station:wmo:42045:1,2012-02-03T03:00:00Z,26.2168,-96.4998,2.0,13.02795022,12.95340882,-99999.0,'11111222,11111222,99999999' 
TABS,ioos:station:wmo:42045:1,2012-02-03T03:30:00Z,26.2168,-96.4998,2.0,20.76399891,10.97267971,-99999.0,'11111222,11111222,99999999' 
TABS,ioos:station:wmo:42045:1,2012-02-03T04:00:00Z,26.2168,-96.4998,2.0,1.481664165,10.4434908,-99999.0,'11111222,11111222,99999999' 
TABS,ioos:station:wmo:42045:1,2012-02-03T04:30:00Z,26.2168,-96.4998,2.0,2.355516082,7.786578196,-99999.0,'11133222,11111222,99999999' 
TABS,ioos:station:wmo:42045:1,2012-02-03T05:00:00Z,26.2168,-96.4998,2.0,1.073539603,12.81224805,-99999.0,'11111222,11111222,99999999' 
TABS,ioos:station:wmo:42045:1,2012-02-03T05:30:00Z,26.2168,-96.4998,2.0,356.9531281,13.168618,-99999.0,'11111222,11111222,99999999' 
TABS,ioos:station:wmo:42045:1,2012-02-03T06:00:00Z,26.2168,-96.4998,2.0,351.3831293,11.81335261,-99999.0,'11111222,11111222,99999999' 
TABS,ioos:station:wmo:42045:1,2012-02-03T06:30:00Z,26.2168,-96.4998,2.0,5.981511845,15.16254596,-99999.0,'11111222,11111222,99999999' 
TABS,ioos:station:wmo:42045:1,2012-02-03T07:00:00Z,26.2168,-96.4998,2.0,341.1269505,11.16000448,-99999.0,'11111222,11111222,99999999' 
TABS,ioos:station:wmo:42045:1,2012-02-03T07:30:00Z,26.2168,-96.4998,2.0,344.6904125,11.0211161,-99999.0,'11111222,11111222,99999999' 
TABS,ioos:station:wmo:42045:1,2012-02-03T08:00:00Z,26.2168,-96.4998,2.0,335.3911759,13.49582528,-99999.0,'11111222,11111222,99999999' 
TABS,ioos:station:wmo:42045:1,2012-02-03T08:30:00Z,26.2168,-96.4998,2.0,347.3114632,11.65463427,-99999.0,'11111222,11111222,99999999' 
TABS,ioos:station:wmo:42045:1,2012-02-03T09:00:00Z,26.2168,-96.4998,2.0,325.8945193,8.792229524,-99999.0,'11133222,11111222,99999999' 
TABS,ioos:station:wmo:42045:1,2012-02-03T09:30:00Z,26.2168,-96.4998,2.0,342.9770849,12.70672657,-99999.0,'11111222,11111222,99999999' 
TABS,ioos:station:wmo:42045:1,2012-02-03T10:00:00Z,26.2168,-96.4998,2.0,328.6574368,7.516947519,-99999.0,'11133222,11111222,99999999' 
TABS,ioos:station:wmo:42045:1,2012-02-03T10:30:00Z,26.2168,-96.4998,2.0,345.4326251,11.76833463,-99999.0,'11111222,11111222,99999999' 
TABS,ioos:station:wmo:42045:1,2012-02-03T11:00:00Z,26.2168,-96.4998,2.0,334.4779606,8.355333626,-99999.0,'11133222,11111222,99999999' 
TABS,ioos:station:wmo:42045:1,2012-02-03T11:30:00Z,26.2168,-96.4998,2.0,343.6836458,9.752804725,-99999.0,'11133222,11111222,99999999' 
TABS,ioos:station:wmo:42045:1,2012-02-03T12:00:00Z,26.2168,-96.4998,2.0,351.1863548,9.006353313,-99999.0,'11133222,11111222,99999999' 
TABS,ioos:station:wmo:42045:1,2012-02-03T12:30:00Z,26.2168,-96.4998,2.0,340.0011045,9.151879588,-99999.0,'11133222,11111222,99999999' 
TABS,ioos:station:wmo:42045:1,2012-02-03T13:00:00Z,26.2168,-96.4998,2.0,354.4266882,10.39916343,-99999.0,'11111222,11111222,99999999' 
TABS,ioos:station:wmo:42045:1,2012-02-03T13:30:00Z,26.2168,-96.4998,2.0,352.7612383,8.729581891,-99999.0,'11133222,11111222,99999999' 
TABS,ioos:station:wmo:42045:1,2012-02-03T14:00:00Z,26.2168,-96.4998,2.0,347.4468733,10.12197609,-99999.0,'11111222,11111222,99999999' 
TABS,ioos:station:wmo:42045:1,2012-02-03T14:30:00Z,26.2168,-96.4998,2.0,0.843559443,10.19110396,-99999.0,'11111222,11111222,99999999' 
TABS,ioos:station:wmo:42045:1,2012-02-03T15:00:00Z,26.2168,-96.4998,2.0,1.389484904,12.3736373,-99999.0,'11111222,11111222,99999999' 
TABS,ioos:station:wmo:42045:1,2012-02-03T15:30:00Z,26.2168,-96.4998,2.0,357.1968956,9.201010814,-99999.0,'11133222,11111222,99999999' 
TABS,ioos:station:wmo:42045:1,2012-02-03T16:00:00Z,26.2168,-96.4998,2.0,348.184091,12.20870591,-99999.0,'11111222,11111222,99999999' 
TABS,ioos:station:wmo:42045:1,2012-02-03T16:30:00Z,26.2168,-96.4998,2.0,359.2601572,9.290774995,-99999.0,'11133222,11144222,99999999' 
TABS,ioos:station:wmo:42045:1,2012-02-03T17:00:00Z,26.2168,-96.4998,2.0,351.9369831,13.33180033,-99999.0,'11111222,11111222,99999999' 
TABS,ioos:station:wmo:42045:1,2012-02-03T17:30:00Z,26.2168,-96.4998,2.0,350.3950288,12.52559779,-99999.0,'11111222,11111222,99999999' 
TABS,ioos:station:wmo:42045:1,2012-02-03T18:00:00Z,26.2168,-96.4998,2.0,10.24938107,11.97101917,-99999.0,'11111222,11111222,99999999' 
TABS,ioos:station:wmo:42045:1,2012-02-03T18:30:00Z,26.2168,-96.4998,2.0,12.7348321,8.755369781,-99999.0,'11133222,11111222,99999999' 
TABS,ioos:station:wmo:42045:1,2012-02-03T19:00:00Z,26.2168,-96.4998,2.0,8.609076352,12.69300989,-99999.0,'11111222,11111222,99999999' 
TABS,ioos:station:wmo:42045:1,2012-02-03T19:30:00Z,26.2168,-96.4998,2.0,19.41645772,16.06356436,-99999.0,'11111222,11111222,99999999' 
TABS,ioos:station:wmo:42045:1,2012-02-03T20:00:00Z,26.2168,-96.4998,2.0,11.4094156,14.71069339,-99999.0,'11111222,11111222,99999999' 
TABS,ioos:station:wmo:42045:1,2012-02-03T20:30:00Z,26.2168,-96.4998,2.0,15.64786479,12.16069488,-99999.0,'11111222,11111222,99999999' 
TABS,ioos:station:wmo:42045:1,2012-02-03T21:00:00Z,26.2168,-96.4998,2.0,17.53811673,9.29191046,-99999.0,'11133222,11111222,99999999' 
TABS,ioos:station:wmo:42045:1,2012-02-03T21:30:00Z,26.2168,-96.4998,2.0,12.44963207,13.31303497,-99999.0,'11111222,11111222,99999999' 
TABS,ioos:station:wmo:42045:1,2012-02-03T22:00:00Z,26.2168,-96.4998,2.0,17.65029341,12.92860395,-99999.0,'11111222,11111222,99999999' 
TABS,ioos:station:wmo:42045:1,2012-02-03T22:30:00Z,26.2168,-96.4998,2.0,11.16506453,9.295934595,-99999.0,'11133222,11111222,99999999' 
TABS,ioos:station:wmo:42045:1,2012-02-03T23:00:00Z,26.2168,-96.4998,2.0,0.773558032,8.890809862,-99999.0,'11133222,11111222,99999999' 
TABS,ioos:station:wmo:42045:1,2012-02-03T23:30:00Z,26.2168,-96.4998,2.0,7.233673141,10.48343455,-99999.0,'11111222,11111222,99999999' 
TABS,ioos:station:wmo:42045:1,2012-02-04T00:00:00Z,26.2168,-96.4998,2.0,0.0,0.0,-99999.0,'11133222,11111222,99999999' 
TABS,ioos:station:wmo:42045:1,2012-02-04T00:30:00Z,26.2168,-96.4998,2.0,23.81512077,5.126499781,-99999.0,'11133222,11111222,99999999' 
TABS,ioos:station:wmo:42045:1,2012-02-04T01:00:00Z,26.2168,-96.4998,2.0,56.22693401,5.738379562,-99999.0,'11133222,11111222,99999999' 
TABS,ioos:station:wmo:42045:1,2012-02-04T01:30:00Z,26.2168,-96.4998,2.0,26.9939709,4.780847205,-99999.0,'11133222,11111222,99999999' 
TABS,ioos:station:wmo:42045:1,2012-02-04T02:00:00Z,26.2168,-96.4998,2.0,28.50485634,4.756605933,-99999.0,'11133222,11111222,99999999' 
TABS,ioos:station:wmo:42045:1,2012-02-04T02:30:00Z,26.2168,-96.4998,2.0,303.9915667,2.110663403,-99999.0,'11133222,11111222,99999999' 
TABS,ioos:station:wmo:42045:1,2012-02-04T03:00:00Z,26.2168,-96.4998,2.0,51.52793097,1.430559331,-99999.0,'11133222,11111222,99999999' 
TABS,ioos:station:wmo:42045:1,2012-02-04T03:30:00Z,26.2168,-96.4998,2.0,325.8110467,2.86513525,-99999.0,'11133222,11111222,99999999' 
TABS,ioos:station:wmo:42045:1,2012-02-04T04:00:00Z,26.2168,-96.4998,2.0,267.2068832,2.052437575,-99999.0,'11133222,11111222,99999999' 
TABS,ioos:station:wmo:42045:1,2012-02-04T04:30:00Z,26.2168,-96.4998,2.0,244.3197051,3.184540783,-99999.0,'11133222,11111222,99999999' 
TABS,ioos:station:wmo:42045:1,2012-02-04T05:00:00Z,26.2168,-96.4998,2.0,204.0214275,3.930407104,-99999.0,'11133222,11111222,99999999' 
TABS,ioos:station:wmo:42045:1,2012-02-04T05:30:00Z,26.2168,-96.4998,2.0,250.3654228,3.928409347,-99999.0,'11133222,11111222,99999999' 
TABS,ioos:station:wmo:42045:1,2012-02-04T06:00:00Z,26.2168,-96.4998,2.0,185.1696053,2.10857772,-99999.0,'11133222,11111222,99999999' 
TABS,ioos:station:wmo:42045:1,2012-02-04T06:30:00Z,26.2168,-96.4998,2.0,350.459851,1.206689687,-99999.0,'11133222,11111222,99999999' 
TABS,ioos:station:wmo:42045:1,2012-02-04T07:00:00Z,26.2168,-96.4998,2.0,173.6961765,1.730462366,-99999.0,'11133222,11111222,99999999' 
TABS,ioos:station:wmo:42045:1,2012-02-04T07:30:00Z,26.2168,-96.4998,2.0,293.2793157,2.808647361,-99999.0,'11133222,11111222,99999999' 
TABS,ioos:station:wmo:42045:1,2012-02-04T08:00:00Z,26.2168,-96.4998,2.0,234.0711607,0.852115016,-99999.0,'11133222,11111222,99999999' 
TABS,ioos:station:wmo:42045:1,2012-02-04T08:30:00Z,26.2168,-96.4998,2.0,163.6102875,1.594804063,-99999.0,'11133222,11111222,99999999' 
TABS,ioos:station:wmo:42045:1,2012-02-04T09:00:00Z,26.2168,-96.4998,2.0,165.0269488,1.780449381,-99999.0,'11133222,11111222,99999999' 
TABS,ioos:station:wmo:42045:1,2012-02-04T09:30:00Z,26.2168,-96.4998,2.0,200.7252999,2.769205662,-99999.0,'11133222,11111222,99999999' 
TABS,ioos:station:wmo:42045:1,2012-02-04T10:00:00Z,26.2168,-96.4998,2.0,198.2214748,5.948285467,-99999.0,'11133222,11111222,99999999' 
TABS,ioos:station:wmo:42045:1,2012-02-04T10:30:00Z,26.2168,-96.4998,2.0,238.054901,4.00679423,-99999.0,'11133222,11111222,99999999' 
TABS,ioos:station:wmo:42045:1,2012-02-04T11:00:00Z,26.2168,-96.4998,2.0,228.7730766,3.975487392,-99999.0,'11133222,11111222,99999999' 
TABS,ioos:station:wmo:42045:1,2012-02-04T11:30:00Z,26.2168,-96.4998,2.0,218.0653516,3.16268873,-99999.0,'11133222,11111222,99999999' 
TABS,ioos:station:wmo:42045:1,2012-02-04T12:00:00Z,26.2168,-96.4998,2.0,313.4091791,2.037253053,-99999.0,'11133222,11111222,99999999' 
TABS,ioos:station:wmo:42045:1,2012-02-04T12:30:00Z,26.2168,-96.4998,2.0,212.7028708,3.220512382,-99999.0,'11133222,11111222,99999999' 
TABS,ioos:station:wmo:42045:1,2012-02-04T13:00:00Z,26.2168,-96.4998,2.0,252.9855082,5.228852647,-99999.0,'11133222,11111222,99999999' 
TABS,ioos:station:wmo:42045:1,2012-02-04T13:30:00Z,26.2168,-96.4998,2.0,237.2498799,4.732229918,-99999.0,'11133222,11111222,99999999' 
TABS,ioos:station:wmo:42045:1,2012-02-04T14:00:00Z,26.2168,-96.4998,2.0,237.3059359,4.147010972,-99999.0,'11133222,11111222,99999999' 
TABS,ioos:station:wmo:42045:1,2012-02-04T14:30:00Z,26.2168,-96.4998,2.0,245.9903666,6.217981988,-99999.0,'11133222,11111222,99999999' 
TABS,ioos:station:wmo:42045:1,2012-02-04T15:00:00Z,26.2168,-96.4998,2.0,272.7595221,4.985779779,-99999.0,'11133222,11111222,99999999' 
TABS,ioos:station:wmo:42045:1,2012-02-04T15:30:00Z,26.2168,-96.4998,2.0,261.4688334,6.471599493,-99999.0,'11133222,11111222,99999999' 
TABS,ioos:station:wmo:42045:1,2012-02-04T16:00:00Z,26.2168,-96.4998,2.0,262.611862,6.221647692,-99999.0,'11133222,11111222,99999999' 